McAllen, TX

7:42 PM CST on February 23, 2017 (GMT -0600)
McAllen Miller International

Weather History for KMFE - January, 2014

Change the Weather History Date:

Saturday, January 11, 2014

  Actual Average Record
Temperature  
Mean Temperature 68 °F 60 °F  
Max Temperature 85 °F 70 °F 91 °F (1963)
Min Temperature 51 °F 50 °F 23 °F (1962)
Degree Days  
Heating Degree Days 0 7  
Month to date heating degree days 101 77  
Since 1 July heating degree days 466 314  
Cooling Degree Days 3 2  
Month to date cooling degree days 11 22  
Year to date cooling degree days 11 22  
Growing Degree Days 18 (Base 50)    
Moisture  
Dew Point 52 °F    
Average Humidity 57    
Maximum Humidity 100    
Minimum Humidity 14    
Precipitation  
Precipitation 0.00 in 0.04 in 0.47 in (2003)
Month to date precipitation 0.01 0.36  
Year to date precipitation 0.01 0.36  
Sea Level Pressure  
Sea Level Pressure 30.01 in    
Wind  
Wind Speed 6 mph (East)    
Max Wind Speed 21 mph    
Max Gust Speed 26 mph    
Visibility 4 miles    
Events Fog    
T = Trace of Precipitation, MM = Missing Value Source: NWS Daily Summary

Daily Weather History Graph

Daily Weather History Graph

Search for Another Location

Airport or City:

Trip Planner

Search our weather history database for the weather conditions in past years. The results will help you decide how hot, cold, wet, or windy it might be!

Date:

Astronomy

Jan. 11, 2014 Rise Set
Actual Time 7:22 AM CST 6:00 PM CST
Civil Twilight 6:57 AM CST 6:24 PM CST
Nautical Twilight 6:28 AM CST 6:53 PM CST
Astronomical Twilight 6:00 AM CST 7:21 PM CST
Moon 2:41 PM CST (1/11) 3:33 AM CST (1/11)
Length of Visible Light 11h 27m
Length of Day
10h 37m
Waxing Gibbous, 83% of the Moon is Illuminated
Jan 11
Waxing Gibbous
Jan 15
Full
Jan 23
Last Quarter
Jan 30
New
Feb 6
First Quarter

Hourly Weather History & Observations

Time (CST) Temp. Dew Point Humidity Pressure Visibility Wind Dir Wind Speed Gust Speed Precip Events Conditions
12:00 AM 62.6 °F 60.8 °F 94% 29.92 in 0.2 mi Calm Calm - N/A Fog Fog
12:07 AM 60.8 °F 60.8 °F 100% 29.92 in 0.5 mi SSE 3.5 mph - N/A Fog Fog
12:19 AM 60.8 °F 60.8 °F 100% 29.92 in 0.2 mi SSE 3.5 mph - N/A Fog Fog
12:42 AM 59.0 °F 57.2 °F 94% 29.92 in 0.2 mi Calm Calm - N/A Fog Fog
12:53 AM 60.1 °F 57.9 °F 93% 29.92 in 0.2 mi Calm Calm - N/A Fog Fog
1:53 AM 60.1 °F 57.9 °F 93% 29.92 in 0.2 mi Calm Calm - N/A Fog Fog
2:53 AM 60.1 °F 59.0 °F 96% 29.93 in 0.2 mi Calm Calm - N/A Fog Fog
3:42 AM 59.0 °F 57.2 °F 94% 29.94 in 0.5 mi Calm Calm - N/A Fog Fog
3:53 AM 59.0 °F 57.9 °F 96% 29.94 in 0.5 mi Calm Calm - N/A Fog Fog
4:01 AM 59.0 °F 57.2 °F 94% 29.94 in 1.2 mi Calm Calm - N/A   Partly Cloudy
4:13 AM 57.2 °F 57.2 °F 100% 29.94 in 2.5 mi Calm Calm - N/A   Clear
4:41 AM 57.2 °F 55.4 °F 94% 29.95 in 3.0 mi Calm Calm - N/A   Clear
4:53 AM 57.0 °F 55.9 °F 96% 29.94 in 3.0 mi Calm Calm - N/A   Clear
4:58 AM 55.4 °F 55.4 °F 100% 29.95 in 1.8 mi Calm Calm - N/A   Clear
5:08 AM 57.2 °F 55.4 °F 94% 29.95 in 0.5 mi Calm Calm - N/A Fog Fog
5:37 AM 53.6 °F 53.6 °F 100% 29.97 in 0.5 mi Calm Calm - N/A Fog Fog
5:42 AM 55.4 °F 55.4 °F 100% 29.97 in 1.5 mi SSW 3.5 mph - N/A   Clear
5:44 AM 55.4 °F 55.4 °F 100% 29.98 in 3.0 mi South 3.5 mph - N/A   Clear
5:53 AM 55.0 °F 54.0 °F 96% 29.98 in 5.0 mi South 4.6 mph - N/A   Clear
6:13 AM 53.6 °F 51.8 °F 94% 29.99 in 1.5 mi SE 5.8 mph - N/A   Clear
6:15 AM 51.8 °F 51.8 °F 100% 30.00 in 1.0 mi SSE 4.6 mph - N/A   Mist
6:17 AM 53.6 °F 51.8 °F 94% 30.00 in 0.8 mi Calm Calm - N/A   Mist
6:31 AM 53.6 °F 53.6 °F 100% 30.01 in 1.2 mi South 3.5 mph - N/A   Partly Cloudy
6:38 AM 53.6 °F 51.8 °F 94% 30.01 in 3.0 mi Calm Calm - N/A   Partly Cloudy
6:50 AM 53.6 °F 51.8 °F 94% 30.02 in 2.5 mi Calm Calm - N/A   Clear
6:53 AM 53.1 °F 52.0 °F 96% 30.02 in 2.5 mi Calm Calm - N/A   Clear
7:01 AM 53.6 °F 51.8 °F 94% 30.02 in 3.0 mi Calm Calm - N/A   Clear
7:06 AM 51.8 °F 51.8 °F 100% 30.02 in 1.5 mi SSE 3.5 mph - N/A   Clear
7:09 AM 51.8 °F 50.0 °F 94% 30.03 in 0.8 mi SE 4.6 mph - N/A   Mist
7:35 AM 51.8 °F 51.8 °F 100% 30.03 in 0.2 mi Calm Calm - N/A Fog Fog
7:48 AM 51.8 °F 51.8 °F 100% 30.04 in 0.8 mi Calm Calm - N/A   Mist
7:49 AM 51.8 °F 51.8 °F 100% 30.04 in 1.0 mi Calm Calm - N/A   Mist
7:53 AM 52.0 °F 52.0 °F 100% 30.04 in 1.8 mi Calm Calm - N/A   Partly Cloudy
8:00 AM 53.6 °F 51.8 °F 94% 30.04 in 2.5 mi Calm Calm - N/A   Partly Cloudy
8:22 AM 55.4 °F 53.6 °F 94% 30.06 in 4.0 mi Calm Calm - N/A   Clear
8:53 AM 60.1 °F 57.0 °F 90% 30.08 in 7.0 mi WNW 3.5 mph - N/A   Clear
9:53 AM 66.0 °F 60.1 °F 81% 30.11 in 10.0 mi Variable 5.8 mph - N/A   Clear
10:53 AM 73.9 °F 59.0 °F 59% 30.11 in 10.0 mi WNW 6.9 mph - N/A   Clear
11:53 AM 82.0 °F 46.9 °F 29% 30.07 in 10.0 mi North 15.0 mph 20.7 mph N/A   Clear
12:53 PM 84.0 °F 35.1 °F 17% 30.05 in 10.0 mi North 16.1 mph - N/A   Clear
1:53 PM 84.0 °F 30.0 °F 14% 30.04 in 10.0 mi North 17.3 mph 24.2 mph N/A   Clear
2:53 PM 84.0 °F 35.1 °F 17% 30.04 in 10.0 mi NNE 10.4 mph - N/A   Clear
3:53 PM 84.0 °F 33.1 °F 16% 30.04 in 10.0 mi North 6.9 mph - N/A   Clear
4:53 PM 82.0 °F 34.0 °F 18% 30.05 in 10.0 mi NE 9.2 mph - N/A   Clear
5:53 PM 73.0 °F 54.0 °F 51% 30.07 in 10.0 mi East 13.8 mph - N/A   Clear
6:53 PM 69.1 °F 44.1 °F 40% 30.09 in 10.0 mi ENE 12.7 mph - N/A   Clear
7:53 PM 64.9 °F 42.1 °F 43% 30.11 in 10.0 mi ENE 9.2 mph - N/A   Clear
8:53 PM 62.1 °F 48.0 °F 60% 30.13 in 10.0 mi NE 6.9 mph - N/A   Clear
9:53 PM 57.9 °F 48.9 °F 72% 30.15 in 10.0 mi ENE 4.6 mph - N/A   Clear
10:53 PM 57.9 °F 50.0 °F 75% 30.15 in 10.0 mi Calm Calm - N/A   Clear
11:53 PM 54.0 °F 51.1 °F 90% 30.14 in 10.0 mi Calm Calm - N/A   Clear